AJISAI (EGS) (16908 NORAD) Tracking and Keplerian Element Data

This shows tracking and keplerian element data for the satellite.

Feedback or suggestion? Click here.




ElementValue
Catalog16908
NameAJISAI (EGS)
Epoch Orbit37003
Epoch Day12.9378601
Epoch Year2024
RAAN352.5656
Inclination50.0114
Eccentricity0.001134
Argument of Perigee84.3547
Mean Anonmoly313.6709
Mean Motion12.44503262
Decay Rate-9.6E-07
L11 16908U 86061A 24012.93786010 -.00000096 00000+0 80955-5 0 9995
L22 16908 50.0114 352.5656 0011340 84.3547 313.6709 12.44503262370030



Live tracking and technical data element details for AJISAI (EGS) (NORAD 16908). AJISAI (EGS) can be tracked NOW for your location showing map with azimuth and elevation plus other details from your city location.







IsCatalogInMostPopularTable: catalog: 16908, numindb: 910
Update: records affected: 1



GetName: 16908 AJISAI (EGS)

Hit Count: updated at: Wed, 21 Feb 2024 09:22:07 GMT